QPF
0.06 0.06 0.05 0.04 0.04 0.04 0.04 0.04 0.04 0.03 0.03 0.02 0.02 0.01 0.01 0.01 0.02 0.02 0.02 0.03 0.04 0.04 0.04 0.03 0.03 0.03 0.04 0.03 0.04 0.05 0.05 0.06 0.05 0.03 0.04 0.05 0.06 0.07
0.07 0.07 0.06 0.04 0.04 0.03 0.03 0.03 0.04 0.04 0.04 0.04 0.02 0.01 0.01 0.01 0.03 0.02 0.02 0.04 0.05 0.05 0.04 0.03 0.03 0.03 0.05 0.04 0.04 0.05 0.05 0.06 0.04 0.03 0.02 0.04 0.07 0.09
0.07 0.08 0.06 0.06 0.06 0.05 0.04 0.04 0.05 0.04 0.04 0.03 0.02 0.01 0.01 0.01 0.02 0.02 0.02 0.02 0.03 0.03 0.02 0.02 0.02 0.02 0.03 0.05 0.05 0.05 0.05 0.05 0.04 0.03 0.02 0.02 0.03 0.05
0.06 0.07 0.06 0.06 0.05 0.06 0.05 0.05 0.04 0.04 0.03 0.03 0.02 0.01 0.02 0.02 0.02 0.01 0.02 0.02 0.02 0.02 0.02 0.02 0.02 0.02 0.01 0.02 0.02 0.02 0.03 0.04 0.04 0.03 0.03 0.03 0.03 0.04
0.04 0.04 0.05 0.06 0.05 0.05 0.04 0.03 0.03 0.03 0.03 0.03 0.03 0.03 0.02 0.02 0.02 0.02 0.02 0.02 0.01 0.02 0.02 0.03 0.03 0.02 0.02 0.01 0.02 0.02 0.02 0.02 0.03 0.03 0.04 0.04 0.04 0.04
0.05 0.04 0.03 0.03 0.04 0.04 0.04 0.03 0.03 0.02 0.02 0.02 0.03 0.04 0.04 0.03 0.03 0.02 0.02 0.02 0.02 0.03 0.03 0.03 0.03 0.03 0.03 0.02 0.03 0.03 0.03 0.04 0.03 0.03 0.03 0.03 0.04 0.04
0.05 0.04 0.03 0.04 0.04 0.05 0.04 0.03 0.02 0.02 0.02 0.02 0.03 0.04 0.05 0.05 0.04 0.02 0.02 0.03 0.03 0.03 0.02 0.02 0.03 0.02 0.02 0.02 0.03 0.03 0.02 0.03 0.03 0.04 0.04 0.04 0.04 0.04
0.04 0.04 0.03 0.02 0.03 0.04 0.04 0.05 0.04 0.03 0.04 0.04 0.05 0.06 0.07 0.09 0.06 0.03 0.03 0.04 0.03 0.02 0.02 0.02 0.02 0.02 0.03 0.03 0.02 0.03 0.02 0.02 0.02 0.03 0.03 0.04 0.04 0.04
0.05 0.05 0.04 0.02 0.03 0.02 0.05 0.06 0.04 0.04 0.06 0.10 0.12 0.12 0.12 0.12 0.12 0.09 0.06 0.04 0.03 0.03 0.03 0.03 0.03 0.03 0.03 0.03 0.02 0.02 0.02 0.02 0.02 0.02 0.01 0.01 0.01 0.01
0.04 0.04 0.03 0.02 0.02 0.02 0.02 0.02 0.02 0.02 0.04 0.06 0.09 0.11 0.12 0.14 0.15 0.15 0.11 0.09 0.08 0.07 0.06 0.03 0.02 0.03 0.04 0.04 0.04 0.03 0.02 0.02 0.01 0.01 0.01 0.01 0.02 0.01
0.03 0.03 0.02 0.02 0.02 0.02 0.02 0.01 0.01 0.01 0.02 0.04 0.06 0.09 0.10 0.11 0.12 0.13 0.14 0.13 0.12 0.10 0.10 0.08 0.05 0.04 0.05 0.05 0.06 0.06 0.04 0.03 0.03 0.02 0.02 0.02 0.03 0.03
0.02 0.02 0.03 0.03 0.03 0.03 0.03 0.02 0.01 0.01 0.02 0.02 0.03 0.05 0.05 0.06 0.07 0.08 0.11 0.12 0.11 0.11 0.11 0.12 0.11 0.08 0.07 0.07 0.07 0.07 0.05 0.04 0.03 0.02 0.02 0.03 0.05 0.04
0.02 0.02 0.03 0.04 0.03 0.03 0.03 0.03 0.03 0.02 0.02 0.02 0.03 0.03 0.02 0.03 0.04 0.05 0.06 0.07 0.06 0.06 0.07 0.08 0.09 0.09 0.08 0.07 0.08 0.07 0.05 0.04 0.02 0.01 0.01 0.02 0.03 0.04
0.03 0.03 0.03 0.04 0.04 0.04 0.04 0.04 0.03 0.03 0.02 0.02 0.02 0.01 0.01 0.02 0.02 0.03 0.03 0.04 0.04 0.04 0.04 0.04 0.04 0.04 0.05 0.05 0.05 0.06 0.05 0.04 0.03 0.02 0.02 0.02 0.02 0.02
0.04 0.04 0.04 0.04 0.03 0.03 0.02 0.03 0.03 0.02 0.02 0.02 0.02 0.02 0.02 0.01 0.01 0.01 0.01 0.01 0.01 0.02 0.03 0.03 0.04 0.05 0.04 0.05 0.05 0.04 0.04 0.03 0.03 0.03 0.02 0.02 0.01 0.01
0.04 0.04 0.04 0.04 0.03 0.02 0.02 0.02 0.02 0.02 0.01 0.01 0.02 0.02 0.01 0.01 0.01 0.00 0.00 0.01 0.01 0.02 0.02 0.02 0.02 0.03 0.03 0.03 0.03 0.03 0.03 0.03 0.03 0.03 0.03 0.03 0.02 0.01
0.03 0.03 0.03 0.02 0.02 0.02 0.01 0.01 0.01 0.01 0.02 0.02 0.01 0.01 0.01 0.01 0.01 0.01 0.01 0.01 0.02 0.02 0.02 0.03 0.02 0.01 0.02 0.03 0.02 0.02 0.02 0.02 0.02 0.03 0.03 0.03 0.02 0.02
0.04 0.04 0.03 0.03 0.02 0.01 0.01 0.01 0.01 0.01 0.01 0.02 0.02 0.01 0.01 0.01 0.01 0.01 0.01 0.01 0.02 0.02 0.03 0.03 0.03 0.02 0.02 0.02 0.02 0.01 0.02 0.02 0.01 0.02 0.03 0.03 0.03 0.03
0.04 0.04 0.04 0.04 0.04 0.04 0.03 0.03 0.03 0.02 0.01 0.01 0.01 0.02 0.01 0.01 0.01 0.01 0.01 0.01 0.02 0.02 0.02 0.03 0.03 0.03 0.03 0.03 0.02 0.03 0.02 0.01 0.01 0.01 0.02 0.03 0.04 0.04
0.03 0.04 0.04 0.04 0.04 0.05 0.05 0.05 0.05 0.04 0.03 0.02 0.02 0.02 0.02 0.02 0.01 0.01 0.01 0.01 0.01 0.02 0.02 0.03 0.03 0.03 0.03 0.03 0.02 0.02 0.02 0.01 0.00 0.00 0.01 0.01 0.02 0.03
0.03 0.03 0.03 0.04 0.06 0.07 0.08 0.08 0.07 0.07 0.06 0.06 0.05 0.04 0.03 0.02 0.02 0.01 0.01 0.01 0.01 0.01 0.01 0.02 0.03 0.03 0.03 0.03 0.01 0.01 0.01 0.02 0.01 0.01 0.01 0.01 0.01 0.02
0.02 0.02 0.02 0.02 0.03 0.05 0.06 0.07 0.07 0.07 0.07 0.06 0.05 0.04 0.04 0.03 0.03 0.03 0.02 0.02 0.02 0.02 0.01 0.01 0.02 0.03 0.03 0.03 0.02 0.01 0.01 0.01 0.02 0.01 0.01 0.01 0.01 0.01
0.02 0.02 0.02 0.02 0.02 0.03 0.03 0.04 0.05 0.06 0.07 0.07 0.06 0.05 0.04 0.04 0.03 0.03 0.03 0.03 0.03 0.03 0.02 0.02 0.02 0.02 0.02 0.03 0.02 0.02 0.02 0.02 0.02 0.02 0.02 0.02 0.02 0.02
MSLP
1010.52 1010.66 1010.87 1011.12 1011.38 1011.63 1011.84 1011.99 1012.10 1012.16 1012.18 1012.16 1012.10 1012.02 1011.91 1011.75 1011.57 1011.36 1011.14 1010.92 1010.73 1010.58 1010.48 1010.45 1010.47 1010.55 1010.65 1010.78 1010.92 1011.07 1011.23 1011.40 1011.59 1011.81 1012.05 1012.30 1012.56 1012.79
1010.55 1010.64 1010.80 1011.02 1011.26 1011.50 1011.73 1011.93 1012.10 1012.23 1012.33 1012.40 1012.43 1012.42 1012.35 1012.24 1012.07 1011.86 1011.61 1011.34 1011.09 1010.87 1010.70 1010.59 1010.54 1010.54 1010.59 1010.66 1010.76 1010.87 1011.00 1011.14 1011.31 1011.51 1011.74 1011.99 1012.24 1012.48
1011.09 1011.13 1011.23 1011.39 1011.57 1011.78 1011.98 1012.18 1012.37 1012.53 1012.68 1012.81 1012.90 1012.95 1012.94 1012.86 1012.72 1012.51 1012.25 1011.95 1011.66 1011.38 1011.14 1010.96 1010.84 1010.78 1010.76 1010.78 1010.82 1010.88 1010.97 1011.07 1011.21 1011.37 1011.57 1011.79 1012.02 1012.25
1012.05 1012.03 1012.07 1012.15 1012.26 1012.40 1012.55 1012.71 1012.87 1013.04 1013.20 1013.36 1013.48 1013.57 1013.60 1013.56 1013.44 1013.24 1012.98 1012.67 1012.35 1012.03 1011.74 1011.51 1011.32 1011.20 1011.12 1011.07 1011.06 1011.06 1011.09 1011.14 1011.22 1011.34 1011.48 1011.66 1011.85 1012.04
1013.24 1013.18 1013.16 1013.17 1013.21 1013.26 1013.34 1013.44 1013.56 1013.69 1013.83 1013.99 1014.12 1014.23 1014.28 1014.26 1014.17 1013.99 1013.73 1013.42 1013.08 1012.74 1012.42 1012.14 1011.91 1011.73 1011.59 1011.49 1011.41 1011.36 1011.32 1011.30 1011.32 1011.36 1011.44 1011.56 1011.70 1011.84
1014.49 1014.40 1014.33 1014.28 1014.25 1014.24 1014.24 1014.27 1014.33 1014.41 1014.52 1014.65 1014.77 1014.87 1014.93 1014.93 1014.84 1014.68 1014.44 1014.13 1013.79 1013.44 1013.11 1012.80 1012.53 1012.30 1012.11 1011.95 1011.82 1011.70 1011.59 1011.50 1011.44 1011.42 1011.42 1011.47 1011.54 1011.63
1015.62 1015.53 1015.43 1015.35 1015.27 1015.20 1015.14 1015.11 1015.11 1015.14 1015.21 1015.29 1015.39 1015.47 1015.52 1015.51 1015.43 1015.27 1015.04 1014.75 1014.41 1014.06 1013.72 1013.39 1013.10 1012.84 1012.61 1012.40 1012.21 1012.03 1011.87 1011.71 1011.58 1011.48 1011.41 1011.39 1011.39 1011.42
1016.55 1016.46 1016.36 1016.26 1016.16 1016.06 1015.97 1015.90 1015.85 1015.84 1015.85 1015.89 1015.95 1015.99 1016.01 1015.99 1015.90 1015.74 1015.51 1015.22 1014.90 1014.55 1014.20 1013.87 1013.56 1013.28 1013.02 1012.78 1012.55 1012.33 1012.11 1011.90 1011.71 1011.54 1011.41 1011.32 1011.26 1011.23
1017.26 1017.19 1017.10 1017.01 1016.91 1016.80 1016.69 1016.60 1016.51 1016.46 1016.43 1016.43 1016.43 1016.44 1016.42 1016.36 1016.25 1016.07 1015.84 1015.55 1015.22 1014.88 1014.53 1014.19 1013.88 1013.59 1013.31 1013.05 1012.80 1012.55 1012.29 1012.05 1011.81 1011.60 1011.42 1011.27 1011.16 1011.07
1017.80 1017.74 1017.68 1017.60 1017.51 1017.41 1017.30 1017.19 1017.09 1017.00 1016.93 1016.88 1016.84 1016.79 1016.72 1016.62 1016.47 1016.27 1016.01 1015.71 1015.37 1015.02 1014.68 1014.34 1014.02 1013.73 1013.45 1013.19 1012.93 1012.66 1012.40 1012.14 1011.88 1011.64 1011.43 1011.24 1011.09 1010.96
1018.26 1018.21 1018.16 1018.10 1018.02 1017.93 1017.82 1017.70 1017.58 1017.46 1017.35 1017.24 1017.14 1017.04 1016.91 1016.76 1016.56 1016.32 1016.03 1015.70 1015.35 1014.99 1014.64 1014.30 1013.99 1013.70 1013.43 1013.17 1012.92 1012.66 1012.41 1012.15 1011.89 1011.64 1011.42 1011.21 1011.03 1010.86
1018.70 1018.66 1018.62 1018.56 1018.48 1018.37 1018.25 1018.11 1017.96 1017.80 1017.65 1017.49 1017.34 1017.17 1016.98 1016.77 1016.51 1016.22 1015.90 1015.54 1015.17 1014.80 1014.43 1014.10 1013.79 1013.50 1013.24 1013.00 1012.77 1012.54 1012.30 1012.06 1011.82 1011.58 1011.35 1011.14 1010.94 1010.75
1019.16 1019.11 1019.05 1018.97 1018.87 1018.74 1018.59 1018.41 1018.22 1018.02 1017.82 1017.61 1017.39 1017.17 1016.92 1016.64 1016.34 1016.00 1015.63 1015.24 1014.84 1014.45 1014.08 1013.74 1013.43 1013.15 1012.91 1012.69 1012.48 1012.27 1012.06 1011.85 1011.63 1011.41 1011.20 1010.98 1010.78 1010.58
1019.62 1019.54 1019.44 1019.32 1019.18 1019.01 1018.81 1018.59 1018.35 1018.10 1017.84 1017.58 1017.31 1017.03 1016.73 1016.41 1016.05 1015.67 1015.26 1014.84 1014.42 1014.00 1013.62 1013.26 1012.95 1012.68 1012.45 1012.24 1012.05 1011.87 1011.69 1011.51 1011.32 1011.12 1010.92 1010.71 1010.51 1010.31
1020.01 1019.89 1019.74 1019.57 1019.37 1019.14 1018.89 1018.61 1018.33 1018.03 1017.73 1017.43 1017.12 1016.80 1016.46 1016.09 1015.70 1015.28 1014.84 1014.39 1013.94 1013.50 1013.10 1012.73 1012.40 1012.13 1011.89 1011.69 1011.51 1011.35 1011.19 1011.03 1010.86 1010.68 1010.50 1010.31 1010.12 1009.92
1020.26 1020.10 1019.90 1019.67 1019.41 1019.12 1018.82 1018.50 1018.18 1017.85 1017.53 1017.20 1016.87 1016.53 1016.16 1015.78 1015.36 1014.91 1014.45 1013.97 1013.49 1013.02 1012.59 1012.20 1011.85 1011.55 1011.30 1011.09 1010.91 1010.74 1010.59 1010.44 1010.28 1010.12 1009.94 1009.77 1009.58 1009.40
1020.34 1020.13 1019.88 1019.60 1019.30 1018.98 1018.64 1018.31 1017.97 1017.64 1017.31 1016.99 1016.66 1016.31 1015.94 1015.55 1015.11 1014.65 1014.16 1013.65 1013.14 1012.64 1012.17 1011.74 1011.36 1011.02 1010.73 1010.49 1010.28 1010.10 1009.93 1009.77 1009.61 1009.45 1009.29 1009.12 1008.95 1008.77
1020.23 1019.98 1019.71 1019.41 1019.09 1018.76 1018.43 1018.10 1017.79 1017.48 1017.18 1016.89 1016.58 1016.25 1015.89 1015.49 1015.05 1014.58 1014.06 1013.52 1012.98 1012.44 1011.92 1011.44 1011.00 1010.61 1010.26 1009.97 1009.71 1009.49 1009.28 1009.10 1008.92 1008.75 1008.58 1008.41 1008.24 1008.07
1019.98 1019.73 1019.45 1019.15 1018.85 1018.55 1018.26 1017.98 1017.72 1017.47 1017.22 1016.97 1016.70 1016.40 1016.06 1015.67 1015.22 1014.73 1014.19 1013.62 1013.04 1012.45 1011.87 1011.33 1010.82 1010.36 1009.95 1009.58 1009.26 1008.97 1008.71 1008.48 1008.27 1008.07 1007.88 1007.71 1007.53 1007.36
1019.67 1019.43 1019.18 1018.93 1018.68 1018.44 1018.22 1018.02 1017.84 1017.66 1017.48 1017.28 1017.06 1016.79 1016.46 1016.07 1015.62 1015.11 1014.54 1013.94 1013.31 1012.67 1012.03 1011.43 1010.85 1010.31 1009.82 1009.37 1008.96 1008.60 1008.28 1007.98 1007.72 1007.48 1007.26 1007.06 1006.87 1006.69
1019.37 1019.18 1018.98 1018.80 1018.63 1018.48 1018.36 1018.25 1018.15 1018.05 1017.94 1017.80 1017.61 1017.36 1017.04 1016.65 1016.18 1015.64 1015.05 1014.41 1013.74 1013.05 1012.37 1011.70 1011.06 1010.45 1009.88 1009.35 1008.86 1008.41 1008.01 1007.64 1007.31 1007.01 1006.75 1006.51 1006.29 1006.09
1019.14 1019.01 1018.90 1018.80 1018.73 1018.68 1018.66 1018.64 1018.63 1018.61 1018.55 1018.45 1018.28 1018.03 1017.71 1017.30 1016.80 1016.24 1015.62 1014.95 1014.25 1013.53 1012.81 1012.10 1011.40 1010.73 1010.10 1009.49 1008.92 1008.39 1007.91 1007.46 1007.06 1006.70 1006.37 1006.08 1005.82 1005.57
1019.00 1018.95 1018.93 1018.93 1018.96 1019.01 1019.07 1019.14 1019.20 1019.22 1019.20 1019.11 1018.94 1018.68 1018.33 1017.89 1017.37 1016.78 1016.13 1015.44 1014.73 1013.99 1013.26 1012.52 1011.80 1011.10 1010.41 1009.75 1009.11 1008.51 1007.94 1007.42 1006.94 1006.51 1006.12 1005.76 1005.44 1005.14
Thickness
5734 5732 5729 5728 5727 5726 5723 5721 5716 5712 5713 5716 5717 5719 5718 5717 5717 5717 5716 5716 5715 5714 5713 5712 5711 5709 5707 5706 5705 5704 5703 5702 5701 5700 5700 5700 5699 5699
5731 5729 5727 5726 5725 5723 5720 5718 5716 5712 5709 5712 5712 5714 5714 5714 5714 5713 5712 5712 5711 5710 5709 5708 5706 5705 5704 5702 5701 5700 5699 5698 5696 5696 5696 5696 5695 5695
5729 5727 5725 5723 5722 5720 5718 5716 5713 5710 5707 5708 5709 5710 5709 5709 5709 5708 5708 5708 5707 5706 5705 5704 5702 5701 5700 5698 5697 5696 5695 5694 5693 5692 5692 5691 5691 5691
5727 5725 5723 5722 5719 5718 5715 5713 5711 5709 5705 5703 5705 5705 5705 5705 5704 5704 5704 5703 5702 5702 5700 5699 5698 5697 5696 5695 5693 5692 5691 5690 5689 5688 5687 5687 5686 5686
5725 5722 5720 5718 5716 5714 5712 5710 5708 5706 5703 5701 5700 5701 5700 5699 5698 5698 5698 5697 5698 5697 5696 5695 5694 5693 5692 5691 5689 5688 5687 5686 5685 5684 5682 5682 5681 5680
5722 5719 5717 5716 5714 5711 5709 5706 5704 5701 5699 5697 5695 5695 5694 5693 5692 5691 5691 5691 5692 5692 5691 5690 5689 5688 5687 5686 5685 5684 5682 5681 5680 5679 5678 5677 5676 5675
5719 5717 5715 5713 5711 5709 5706 5703 5700 5697 5695 5693 5691 5690 5689 5687 5686 5686 5686 5686 5686 5686 5685 5685 5684 5684 5683 5682 5681 5679 5678 5677 5676 5675 5673 5672 5671 5670
5714 5712 5711 5709 5707 5705 5703 5700 5698 5694 5691 5689 5687 5685 5684 5683 5682 5681 5680 5679 5679 5681 5679 5680 5679 5679 5679 5678 5677 5675 5674 5672 5671 5670 5669 5667 5666 5665
5709 5707 5706 5705 5702 5699 5697 5695 5693 5691 5689 5687 5683 5681 5680 5679 5677 5676 5675 5674 5674 5674 5673 5673 5673 5673 5673 5673 5672 5671 5669 5668 5666 5665 5664 5662 5661 5659
5703 5701 5699 5698 5696 5693 5691 5689 5687 5686 5684 5682 5680 5678 5677 5675 5673 5671 5670 5669 5668 5667 5666 5666 5667 5667 5668 5667 5667 5666 5664 5663 5662 5660 5659 5657 5655 5654
5697 5695 5693 5691 5689 5687 5685 5682 5681 5680 5678 5676 5674 5672 5670 5669 5667 5665 5663 5661 5661 5661 5659 5658 5660 5660 5661 5661 5661 5660 5659 5657 5656 5654 5653 5651 5649 5647
5690 5689 5687 5685 5683 5680 5678 5675 5673 5672 5670 5669 5667 5665 5663 5661 5659 5658 5656 5655 5653 5653 5653 5651 5652 5651 5652 5654 5653 5652 5651 5650 5648 5647 5646 5644 5642 5639
5684 5682 5681 5678 5676 5673 5671 5669 5667 5665 5662 5661 5659 5658 5656 5654 5652 5651 5649 5648 5647 5646 5646 5644 5644 5643 5642 5644 5645 5644 5643 5641 5640 5639 5638 5636 5634 5632
5679 5677 5675 5672 5670 5668 5665 5662 5660 5658 5656 5653 5652 5650 5649 5647 5645 5643 5642 5641 5641 5640 5638 5636 5635 5634 5633 5634 5634 5635 5634 5632 5631 5630 5629 5628 5627 5626
5673 5671 5668 5665 5662 5660 5658 5655 5653 5651 5649 5647 5645 5643 5641 5639 5637 5636 5635 5633 5633 5631 5630 5628 5627 5626 5625 5625 5625 5624 5624 5623 5622 5621 5621 5620 5619 5618
5664 5661 5659 5656 5654 5652 5650 5648 5646 5644 5642 5640 5637 5635 5633 5631 5629 5627 5626 5625 5624 5624 5621 5619 5618 5617 5616 5615 5614 5614 5612 5612 5612 5611 5611 5611 5611 5610
5655 5652 5650 5648 5646 5644 5642 5640 5638 5635 5633 5631 5628 5626 5624 5622 5620 5618 5616 5615 5614 5613 5611 5610 5608 5607 5606 5605 5604 5604 5603 5602 5601 5600 5600 5601 5602 5601
5646 5644 5642 5640 5638 5636 5634 5631 5629 5627 5624 5622 5619 5618 5616 5614 5612 5610 5607 5605 5604 5602 5600 5599 5598 5597 5596 5595 5592 5593 5593 5592 5591 5590 5589 5590 5592 5592
5638 5636 5634 5631 5629 5628 5626 5623 5621 5619 5616 5613 5611 5609 5607 5605 5603 5600 5598 5595 5594 5592 5590 5588 5586 5586 5586 5586 5585 5581 5581 5582 5581 5580 5579 5579 5581 5582
5628 5627 5625 5623 5621 5619 5617 5615 5612 5609 5607 5604 5602 5600 5598 5595 5593 5591 5588 5586 5584 5582 5580 5578 5575 5574 5574 5574 5574 5573 5570 5570 5570 5570 5570 5570 5570 5570
5620 5618 5616 5614 5612 5610 5608 5606 5603 5600 5598 5595 5593 5590 5588 5585 5583 5580 5578 5575 5573 5571 5570 5568 5566 5563 5563 5562 5562 5563 5561 5559 5559 5559 5559 5559 5561 5561
5611 5609 5607 5605 5603 5601 5599 5596 5593 5591 5588 5586 5583 5581 5578 5576 5573 5571 5569 5566 5564 5562 5560 5558 5556 5554 5553 5553 5554 5553 5552 5551 5549 5548 5548 5548 5548 5550
5603 5601 5598 5596 5594 5592 5589 5587 5585 5582 5579 5577 5574 5572 5569 5567 5564 5562 5559 5557 5555 5553 5551 5550 5548 5546 5544 5543 5543 5543 5542 5541 5541 5540 5540 5539 5538 5538